QPF
0.00 0.00 0.00 0.00 0.00 0.00 0.00 0.00 0.00 0.00 0.00 0.00 0.00 0.00 0.01 0.01 0.01 0.01 0.01 0.01 0.01 0.02 0.03 0.04 0.04 0.04 0.03 0.03 0.03 0.03 0.04 0.04 0.06 0.07 0.06 0.09 0.09 0.11 0.13 0.16 0.17 0.19 0.20 0.21
0.00 0.00 0.00 0.00 0.00 0.00 0.00 0.00 0.00 0.00 0.00 0.00 0.00 0.00 0.00 0.01 0.01 0.01 0.01 0.02 0.02 0.03 0.04 0.04 0.04 0.02 0.01 0.01 0.01 0.01 0.01 0.02 0.03 0.04 0.04 0.05 0.04 0.04 0.06 0.08 0.10 0.12 0.17 0.19
0.00 0.00 0.00 0.00 0.00 0.00 0.00 0.00 0.00 0.00 0.00 0.00 0.00 0.00 0.00 0.00 0.01 0.01 0.02 0.02 0.03 0.03 0.03 0.03 0.02 0.01 0.00 0.00 0.00 0.00 0.00 0.00 0.01 0.02 0.02 0.02 0.02 0.02 0.02 0.03 0.05 0.07 0.10 0.11
0.00 0.00 0.00 0.00 0.00 0.00 0.00 0.00 0.00 0.00 0.00 0.00 0.00 0.00 0.00 0.00 0.01 0.01 0.02 0.02 0.03 0.03 0.03 0.02 0.01 0.01 0.00 0.00 0.00 0.00 0.00 0.00 0.00 0.00 0.00 0.00 0.01 0.00 0.01 0.01 0.01 0.02 0.03 0.05
0.00 0.00 0.00 0.00 0.00 0.00 0.00 0.00 0.00 0.00 0.00 0.00 0.00 0.00 0.00 0.00 0.00 0.01 0.01 0.02 0.02 0.02 0.02 0.01 0.01 0.00 0.00 0.00 0.00 0.00 0.00 0.00 0.00 0.00 0.00 0.00 0.00 0.00 0.00 0.00 0.00 0.00 0.00 0.01
0.00 0.00 0.00 0.00 0.00 0.00 0.00 0.00 0.00 0.00 0.00 0.00 0.00 0.00 0.00 0.00 0.00 0.00 0.01 0.01 0.01 0.01 0.01 0.01 0.00 0.00 0.00 0.00 0.00 0.00 0.00 0.00 0.00 0.00 0.00 0.00 0.00 0.00 0.00 0.00 0.00 0.00 0.00 0.00
0.00 0.00 0.00 0.00 0.00 0.00 0.00 0.00 0.00 0.00 0.00 0.00 0.00 0.00 0.00 0.00 0.00 0.00 0.00 0.00 0.01 0.00 0.00 0.00 0.00 0.00 0.00 0.00 0.00 0.00 0.00 0.00 0.00 0.00 0.00 0.00 0.00 0.00 0.00 0.00 0.00 0.00 0.00 0.00
0.00 0.00 0.00 0.01 0.01 0.00 0.00 0.00 0.00 0.00 0.00 0.00 0.00 0.00 0.00 0.00 0.00 0.00 0.00 0.00 0.00 0.00 0.00 0.00 0.00 0.00 0.00 0.00 0.00 0.00 0.00 0.00 0.00 0.00 0.00 0.00 0.00 0.00 0.00 0.00 0.00 0.00 0.00 0.00
0.00 0.00 0.00 0.00 0.00 0.00 0.00 0.00 0.00 0.00 0.00 0.00 0.00 0.00 0.00 0.00 0.00 0.00 0.00 0.00 0.00 0.00 0.00 0.00 0.00 0.00 0.00 0.00 0.00 0.00 0.00 0.00 0.00 0.00 0.00 0.00 0.00 0.00 0.00 0.00 0.00 0.00 0.00 0.00
0.00 0.00 0.00 0.00 0.00 0.00 0.01 0.01 0.00 0.00 0.00 0.00 0.00 0.00 0.00 0.00 0.00 0.00 0.00 0.00 0.00 0.00 0.00 0.00 0.00 0.00 0.00 0.00 0.00 0.00 0.00 0.00 0.00 0.00 0.00 0.00 0.00 0.00 0.00 0.00 0.00 0.00 0.00 0.00
0.00 0.00 0.00 0.00 0.00 0.00 0.00 0.01 0.01 0.01 0.01 0.00 0.00 0.00 0.00 0.00 0.00 0.00 0.00 0.00 0.00 0.00 0.00 0.00 0.00 0.00 0.00 0.00 0.00 0.00 0.00 0.00 0.00 0.00 0.00 0.00 0.00 0.00 0.00 0.00 0.00 0.00 0.00 0.00
0.00 0.00 0.00 0.00 0.00 0.00 0.00 0.00 0.00 0.00 0.00 0.00 0.00 0.00 0.00 0.00 0.00 0.00 0.00 0.00 0.00 0.00 0.00 0.00 0.00 0.00 0.00 0.00 0.00 0.00 0.00 0.00 0.00 0.00 0.00 0.00 0.00 0.00 0.00 0.00 0.00 0.00 0.00 0.00
0.00 0.00 0.00 0.00 0.00 0.00 0.00 0.00 0.00 0.01 0.00 0.01 0.01 0.00 0.00 0.00 0.00 0.00 0.00 0.00 0.00 0.00 0.00 0.00 0.00 0.00 0.00 0.00 0.00 0.00 0.00 0.00 0.00 0.00 0.00 0.00 0.00 0.00 0.00 0.00 0.00 0.00 0.00 0.01
0.00 0.00 0.00 0.00 0.00 0.00 0.00 0.00 0.00 0.00 0.00 0.00 0.00 0.00 0.00 0.00 0.00 0.00 0.00 0.00 0.00 0.00 0.00 0.00 0.00 0.00 0.00 0.00 0.00 0.00 0.00 0.00 0.00 0.00 0.00 0.00 0.00 0.00 0.00 0.00 0.00 0.00 0.01 0.02
0.00 0.00 0.00 0.00 0.00 0.00 0.00 0.00 0.00 0.00 0.00 0.00 0.00 0.00 0.00 0.00 0.00 0.00 0.00 0.00 0.00 0.00 0.00 0.00 0.00 0.00 0.00 0.00 0.00 0.00 0.00 0.00 0.00 0.00 0.00 0.00 0.00 0.00 0.00 0.00 0.00 0.00 0.01 0.03
0.00 0.00 0.00 0.00 0.00 0.00 0.00 0.00 0.00 0.00 0.00 0.00 0.00 0.00 0.00 0.01 0.01 0.00 0.00 0.00 0.00 0.00 0.00 0.00 0.00 0.00 0.00 0.00 0.00 0.00 0.00 0.00 0.00 0.00 0.00 0.00 0.01 0.01 0.01 0.01 0.00 0.01 0.01 0.02
0.00 0.00 0.00 0.00 0.00 0.00 0.00 0.00 0.00 0.00 0.00 0.01 0.01 0.02 0.01 0.01 0.01 0.01 0.01 0.01 0.00 0.00 0.00 0.00 0.00 0.00 0.00 0.00 0.00 0.00 0.00 0.00 0.00 0.01 0.01 0.02 0.02 0.02 0.02 0.02 0.01 0.01 0.02 0.01
0.00 0.00 0.00 0.00 0.00 0.00 0.00 0.00 0.00 0.00 0.01 0.01 0.02 0.02 0.01 0.01 0.01 0.02 0.02 0.01 0.00 0.00 0.00 0.00 0.00 0.00 0.00 0.00 0.00 0.00 0.00 0.00 0.01 0.01 0.02 0.03 0.04 0.04 0.04 0.04 0.03 0.03 0.02 0.01
0.00 0.00 0.01 0.01 0.00 0.00 0.00 0.01 0.01 0.01 0.02 0.02 0.02 0.03 0.03 0.02 0.02 0.02 0.02 0.01 0.00 0.00 0.00 0.00 0.00 0.00 0.00 0.00 0.00 0.00 0.00 0.00 0.01 0.02 0.03 0.04 0.06 0.06 0.06 0.06 0.06 0.06 0.05 0.02
0.00 0.00 0.01 0.01 0.00 0.01 0.01 0.02 0.02 0.02 0.06 0.05 0.04 0.03 0.02 0.01 0.01 0.01 0.00 0.00 0.00 0.00 0.00 0.00 0.00 0.00 0.00 0.00 0.00 0.00 0.00 0.01 0.01 0.03 0.04 0.06 0.07 0.08 0.09 0.11 0.11 0.09 0.07 0.04
0.00 0.00 0.00 0.00 0.00 0.01 0.01 0.01 0.02 0.03 0.06 0.02 0.01 0.00 0.00 0.00 0.00 0.00 0.00 0.00 0.00 0.00 0.00 0.00 0.00 0.00 0.00 0.00 0.00 0.00 0.00 0.01 0.01 0.03 0.05 0.07 0.10 0.12 0.14 0.17 0.16 0.14 0.11 0.07
0.00 0.00 0.00 0.00 0.01 0.02 0.01 0.00 0.00 0.00 0.00 0.00 0.00 0.00 0.00 0.00 0.00 0.00 0.00 0.00 0.00 0.00 0.00 0.00 0.00 0.00 0.00 0.00 0.00 0.00 0.00 0.00 0.01 0.02 0.04 0.07 0.11 0.15 0.19 0.22 0.21 0.20 0.18 0.12
0.00 0.00 0.00 0.01 0.01 0.00 0.00 0.00 0.00 0.00 0.00 0.00 0.00 0.00 0.00 0.00 0.00 0.00 0.00 0.00 0.00 0.00 0.00 0.00 0.00 0.00 0.00 0.00 0.00 0.00 0.00 0.00 0.01 0.02 0.04 0.07 0.11 0.15 0.20 0.25 0.26 0.26 0.24 0.18
0.00 0.00 0.00 0.00 0.00 0.00 0.00 0.00 0.00 0.00 0.00 0.00 0.00 0.00 0.00 0.00 0.00 0.00 0.00 0.00 0.00 0.00 0.00 0.00 0.00 0.00 0.00 0.00 0.00 0.00 0.00 0.01 0.02 0.03 0.04 0.07 0.11 0.15 0.20 0.26 0.31 0.32 0.30 0.24
0.00 0.00 0.00 0.00 0.00 0.00 0.00 0.00 0.00 0.00 0.00 0.00 0.00 0.00 0.00 0.00 0.00 0.00 0.00 0.00 0.00 0.00 0.00 0.00 0.00 0.00 0.00 0.00 0.00 0.00 0.00 0.01 0.02 0.02 0.05 0.08 0.11 0.15 0.21 0.26 0.30 0.33 0.31 0.26
0.00 0.00 0.00 0.00 0.00 0.00 0.00 0.00 0.00 0.00 0.00 0.00 0.00 0.00 0.00 0.00 0.00 0.00 0.00 0.00 0.00 0.00 0.00 0.00 0.00 0.00 0.00 0.00 0.00 0.00 0.01 0.02 0.03 0.03 0.04 0.10 0.15 0.18 0.22 0.27 0.29 0.31 0.32 0.27
MSLP
1012.22 1012.81 1013.23 1013.46 1013.54 1013.51 1013.42 1013.31 1013.20 1013.07 1012.91 1012.71 1012.46 1012.14 1011.80 1011.45 1011.15 1010.93 1010.80 1010.77 1010.83 1010.93 1011.03 1011.11 1011.13 1011.09 1011.01 1010.92 1010.84 1010.80 1010.83 1010.92 1011.04 1011.18 1011.30 1011.36 1011.35 1011.26 1011.09 1010.86 1010.61 1010.35 1010.11 1009.92
1012.44 1012.90 1013.20 1013.36 1013.42 1013.43 1013.45 1013.49 1013.56 1013.62 1013.63 1013.56 1013.38 1013.08 1012.70 1012.28 1011.88 1011.55 1011.33 1011.22 1011.21 1011.27 1011.33 1011.37 1011.35 1011.27 1011.13 1010.97 1010.82 1010.73 1010.72 1010.79 1010.92 1011.08 1011.23 1011.32 1011.32 1011.22 1011.03 1010.75 1010.43 1010.10 1009.79 1009.53
1012.49 1012.81 1012.99 1013.09 1013.16 1013.25 1013.41 1013.64 1013.92 1014.18 1014.36 1014.41 1014.29 1013.99 1013.55 1013.03 1012.51 1012.05 1011.71 1011.50 1011.42 1011.42 1011.46 1011.48 1011.44 1011.33 1011.15 1010.95 1010.77 1010.65 1010.61 1010.67 1010.81 1010.99 1011.16 1011.28 1011.31 1011.22 1011.02 1010.72 1010.36 1009.97 1009.60 1009.27
1012.44 1012.61 1012.69 1012.74 1012.84 1013.04 1013.37 1013.80 1014.30 1014.76 1015.11 1015.27 1015.19 1014.88 1014.36 1013.72 1013.05 1012.45 1011.97 1011.65 1011.48 1011.43 1011.43 1011.44 1011.39 1011.27 1011.09 1010.88 1010.68 1010.54 1010.49 1010.55 1010.69 1010.89 1011.10 1011.25 1011.31 1011.25 1011.06 1010.76 1010.38 1009.96 1009.54 1009.15
1012.39 1012.42 1012.41 1012.44 1012.59 1012.90 1013.40 1014.04 1014.74 1015.40 1015.90 1016.15 1016.10 1015.75 1015.15 1014.39 1013.57 1012.82 1012.19 1011.75 1011.49 1011.37 1011.33 1011.32 1011.27 1011.15 1010.97 1010.76 1010.55 1010.41 1010.35 1010.41 1010.57 1010.79 1011.02 1011.21 1011.31 1011.29 1011.14 1010.86 1010.48 1010.05 1009.59 1009.14
1012.44 1012.34 1012.26 1012.28 1012.48 1012.91 1013.56 1014.38 1015.26 1016.07 1016.69 1017.02 1017.00 1016.62 1015.95 1015.07 1014.13 1013.23 1012.47 1011.91 1011.55 1011.35 1011.27 1011.22 1011.16 1011.04 1010.86 1010.65 1010.44 1010.29 1010.23 1010.29 1010.45 1010.68 1010.93 1011.16 1011.30 1011.32 1011.21 1010.96 1010.61 1010.17 1009.70 1009.21
1012.63 1012.44 1012.31 1012.33 1012.58 1013.10 1013.87 1014.82 1015.83 1016.76 1017.47 1017.85 1017.85 1017.45 1016.73 1015.79 1014.75 1013.75 1012.89 1012.22 1011.76 1011.49 1011.34 1011.25 1011.16 1011.02 1010.83 1010.61 1010.40 1010.23 1010.17 1010.21 1010.35 1010.58 1010.84 1011.08 1011.25 1011.31 1011.24 1011.04 1010.71 1010.29 1009.80 1009.28
1012.96 1012.72 1012.57 1012.60 1012.89 1013.46 1014.29 1015.31 1016.40 1017.39 1018.15 1018.57 1018.59 1018.20 1017.48 1016.51 1015.43 1014.38 1013.46 1012.72 1012.18 1011.84 1011.62 1011.47 1011.33 1011.16 1010.94 1010.70 1010.47 1010.28 1010.18 1010.19 1010.31 1010.51 1010.75 1010.98 1011.16 1011.25 1011.20 1011.03 1010.74 1010.34 1009.85 1009.32
1013.37 1013.13 1012.98 1013.03 1013.33 1013.92 1014.77 1015.80 1016.89 1017.88 1018.66 1019.10 1019.15 1018.80 1018.11 1017.18 1016.14 1015.10 1014.16 1013.39 1012.81 1012.40 1012.12 1011.91 1011.71 1011.49 1011.23 1010.95 1010.68 1010.45 1010.31 1010.26 1010.32 1010.47 1010.66 1010.86 1011.02 1011.10 1011.07 1010.92 1010.66 1010.28 1009.81 1009.27
1013.78 1013.57 1013.46 1013.52 1013.83 1014.40 1015.21 1016.19 1017.22 1018.18 1018.93 1019.37 1019.46 1019.18 1018.58 1017.75 1016.79 1015.82 1014.93 1014.18 1013.58 1013.13 1012.80 1012.52 1012.26 1011.98 1011.67 1011.34 1011.02 1010.74 1010.54 1010.43 1010.41 1010.48 1010.59 1010.72 1010.83 1010.88 1010.84 1010.70 1010.46 1010.11 1009.67 1009.16
1014.08 1013.95 1013.89 1013.98 1014.28 1014.80 1015.53 1016.42 1017.35 1018.22 1018.92 1019.36 1019.49 1019.30 1018.83 1018.13 1017.31 1016.47 1015.67 1014.98 1014.40 1013.94 1013.56 1013.23 1012.91 1012.57 1012.21 1011.84 1011.47 1011.13 1010.86 1010.67 1010.56 1010.52 1010.54 1010.57 1010.61 1010.60 1010.53 1010.39 1010.16 1009.85 1009.46 1008.99
1014.22 1014.19 1014.21 1014.33 1014.61 1015.08 1015.71 1016.48 1017.29 1018.06 1018.69 1019.11 1019.28 1019.19 1018.85 1018.32 1017.67 1016.98 1016.31 1015.69 1015.16 1014.70 1014.30 1013.92 1013.55 1013.17 1012.77 1012.36 1011.95 1011.56 1011.23 1010.95 1010.74 1010.59 1010.49 1010.42 1010.35 1010.27 1010.16 1010.01 1009.81 1009.54 1009.21 1008.82
1014.21 1014.30 1014.40 1014.56 1014.83 1015.24 1015.78 1016.41 1017.10 1017.75 1018.31 1018.71 1018.92 1018.91 1018.71 1018.34 1017.86 1017.32 1016.77 1016.25 1015.76 1015.32 1014.90 1014.51 1014.11 1013.69 1013.26 1012.83 1012.39 1011.96 1011.57 1011.22 1010.92 1010.66 1010.44 1010.25 1010.08 1009.92 1009.76 1009.60 1009.42 1009.21 1008.96 1008.67
1014.13 1014.32 1014.50 1014.71 1014.98 1015.34 1015.79 1016.32 1016.88 1017.43 1017.92 1018.29 1018.52 1018.58 1018.49 1018.25 1017.92 1017.51 1017.07 1016.62 1016.18 1015.75 1015.33 1014.91 1014.49 1014.06 1013.63 1013.18 1012.73 1012.28 1011.85 1011.44 1011.05 1010.69 1010.36 1010.06 1009.79 1009.55 1009.35 1009.18 1009.02 1008.88 1008.72 1008.54
1014.09 1014.36 1014.62 1014.87 1015.15 1015.48 1015.87 1016.31 1016.77 1017.23 1017.65 1017.98 1018.21 1018.31 1018.29 1018.14 1017.90 1017.58 1017.21 1016.81 1016.39 1015.96 1015.53 1015.11 1014.68 1014.25 1013.81 1013.37 1012.93 1012.48 1012.02 1011.57 1011.11 1010.67 1010.24 1009.84 1009.48 1009.17 1008.92 1008.74 1008.61 1008.53 1008.47 1008.41
1014.21 1014.55 1014.85 1015.14 1015.43 1015.75 1016.10 1016.48 1016.87 1017.25 1017.59 1017.88 1018.09 1018.19 1018.19 1018.08 1017.87 1017.59 1017.24 1016.84 1016.42 1015.98 1015.54 1015.10 1014.67 1014.24 1013.81 1013.39 1012.96 1012.52 1012.06 1011.57 1011.07 1010.56 1010.06 1009.58 1009.14 1008.77 1008.48 1008.28 1008.17 1008.14 1008.16 1008.21
1014.60 1014.95 1015.28 1015.59 1015.90 1016.21 1016.54 1016.87 1017.21 1017.52 1017.81 1018.03 1018.19 1018.25 1018.22 1018.09 1017.87 1017.56 1017.19 1016.77 1016.32 1015.85 1015.39 1014.93 1014.48 1014.06 1013.65 1013.24 1012.83 1012.40 1011.94 1011.45 1010.92 1010.37 1009.81 1009.26 1008.76 1008.33 1008.00 1007.78 1007.67 1007.67 1007.74 1007.87
1015.28 1015.62 1015.95 1016.26 1016.57 1016.88 1017.18 1017.49 1017.77 1018.03 1018.24 1018.40 1018.47 1018.47 1018.37 1018.17 1017.88 1017.52 1017.09 1016.62 1016.12 1015.60 1015.10 1014.62 1014.17 1013.74 1013.34 1012.95 1012.56 1012.14 1011.69 1011.20 1010.65 1010.08 1009.48 1008.89 1008.34 1007.86 1007.48 1007.22 1007.09 1007.08 1007.18 1007.35
1016.22 1016.52 1016.82 1017.11 1017.40 1017.69 1017.97 1018.23 1018.46 1018.65 1018.79 1018.86 1018.84 1018.73 1018.54 1018.24 1017.87 1017.42 1016.92 1016.38 1015.82 1015.26 1014.72 1014.22 1013.75 1013.32 1012.92 1012.53 1012.15 1011.75 1011.31 1010.82 1010.28 1009.69 1009.08 1008.46 1007.88 1007.35 1006.92 1006.62 1006.44 1006.39 1006.47 1006.64
1017.30 1017.55 1017.80 1018.04 1018.29 1018.54 1018.77 1018.97 1019.14 1019.26 1019.30 1019.26 1019.14 1018.92 1018.62 1018.22 1017.75 1017.22 1016.64 1016.04 1015.43 1014.83 1014.26 1013.73 1013.25 1012.80 1012.40 1012.01 1011.63 1011.24 1010.81 1010.33 1009.81 1009.23 1008.62 1007.99 1007.38 1006.83 1006.35 1005.98 1005.74 1005.63 1005.65 1005.79
1018.40 1018.58 1018.76 1018.95 1019.13 1019.30 1019.46 1019.59 1019.67 1019.69 1019.63 1019.49 1019.25 1018.92 1018.50 1018.01 1017.45 1016.85 1016.21 1015.57 1014.92 1014.30 1013.71 1013.16 1012.66 1012.20 1011.78 1011.39 1011.01 1010.62 1010.20 1009.74 1009.24 1008.69 1008.10 1007.49 1006.88 1006.30 1005.78 1005.35 1005.04 1004.85 1004.80 1004.88
1019.38 1019.51 1019.61 1019.71 1019.80 1019.89 1019.95 1019.98 1019.95 1019.86 1019.69 1019.43 1019.08 1018.64 1018.13 1017.56 1016.94 1016.28 1015.62 1014.95 1014.29 1013.66 1013.06 1012.50 1011.98 1011.50 1011.06 1010.65 1010.26 1009.87 1009.47 1009.04 1008.58 1008.07 1007.52 1006.95 1006.36 1005.78 1005.24 1004.77 1004.39 1004.12 1003.99 1004.00
1020.17 1020.23 1020.26 1020.27 1020.26 1020.23 1020.18 1020.09 1019.94 1019.72 1019.43 1019.06 1018.60 1018.08 1017.49 1016.86 1016.20 1015.52 1014.84 1014.17 1013.52 1012.89 1012.28 1011.71 1011.18 1010.68 1010.22 1009.79 1009.38 1008.99 1008.61 1008.22 1007.80 1007.36 1006.88 1006.36 1005.82 1005.27 1004.73 1004.23 1003.80 1003.48 1003.28 1003.22
1020.72 1020.72 1020.67 1020.58 1020.47 1020.32 1020.14 1019.92 1019.65 1019.31 1018.90 1018.42 1017.87 1017.28 1016.63 1015.96 1015.28 1014.60 1013.92 1013.26 1012.61 1011.99 1011.38 1010.80 1010.24 1009.72 1009.23 1008.77 1008.36 1007.97 1007.61 1007.27 1006.91 1006.54 1006.15 1005.71 1005.24 1004.74 1004.23 1003.73 1003.29 1002.92 1002.68 1002.58
1021.04 1020.99 1020.86 1020.68 1020.45 1020.19 1019.89 1019.55 1019.15 1018.69 1018.18 1017.61 1016.98 1016.33 1015.64 1014.95 1014.26 1013.57 1012.90 1012.25 1011.60 1010.97 1010.35 1009.75 1009.16 1008.61 1008.08 1007.61 1007.18 1006.80 1006.47 1006.17 1005.89 1005.61 1005.31 1004.97 1004.58 1004.15 1003.69 1003.23 1002.79 1002.42 1002.16 1002.04
1021.17 1021.06 1020.86 1020.60 1020.28 1019.91 1019.50 1019.04 1018.54 1017.98 1017.38 1016.73 1016.05 1015.35 1014.63 1013.92 1013.21 1012.52 1011.84 1011.17 1010.52 1009.86 1009.21 1008.57 1007.94 1007.35 1006.79 1006.29 1005.86 1005.49 1005.20 1004.95 1004.75 1004.55 1004.35 1004.11 1003.81 1003.47 1003.08 1002.66 1002.26 1001.91 1001.66 1001.55
Thickness
5754 5740 5734 5742 5748 5753 5752 5748 5747 5758 5774 5768 5763 5765 5772 5780 5781 5779 5778 5777 5776 5775 5777 5778 5778 5776 5773 5769 5767 5764 5761 5758 5755 5750 5746 5743 5741 5742 5741 5741 5739 5738 5736 5735
5736 5734 5749 5756 5755 5751 5747 5742 5744 5754 5766 5761 5754 5755 5763 5768 5768 5769 5768 5767 5767 5766 5767 5769 5769 5769 5766 5763 5760 5757 5755 5753 5749 5745 5742 5739 5737 5735 5734 5734 5733 5731 5730 5729
5734 5744 5760 5757 5752 5745 5744 5741 5744 5747 5752 5751 5748 5739 5747 5756 5760 5761 5761 5760 5760 5760 5760 5760 5760 5760 5758 5756 5753 5751 5748 5746 5743 5739 5735 5731 5728 5726 5725 5724 5723 5723 5722 5721
5742 5753 5757 5753 5750 5747 5736 5752 5751 5746 5733 5722 5732 5711 5731 5739 5744 5747 5749 5750 5751 5754 5754 5754 5753 5753 5751 5749 5748 5744 5741 5739 5736 5733 5728 5723 5718 5715 5715 5714 5713 5713 5712 5712
5739 5752 5751 5747 5751 5753 5746 5749 5742 5734 5727 5714 5716 5707 5714 5730 5732 5736 5741 5744 5746 5748 5748 5747 5747 5747 5746 5744 5740 5737 5734 5731 5729 5727 5723 5718 5714 5711 5709 5707 5706 5704 5703 5703
5745 5757 5756 5754 5756 5756 5750 5736 5724 5711 5703 5693 5706 5701 5702 5714 5726 5733 5738 5741 5743 5744 5743 5743 5742 5741 5738 5736 5733 5730 5728 5726 5724 5721 5718 5714 5710 5706 5703 5701 5698 5697 5695 5694
5729 5742 5753 5759 5747 5746 5736 5711 5686 5682 5674 5680 5699 5696 5698 5721 5728 5731 5734 5737 5739 5739 5737 5735 5733 5732 5730 5728 5727 5725 5723 5721 5719 5717 5713 5710 5705 5701 5697 5694 5692 5690 5688 5686
5711 5712 5741 5752 5745 5734 5730 5711 5683 5672 5667 5675 5691 5692 5706 5718 5723 5727 5727 5726 5727 5726 5726 5726 5726 5725 5723 5723 5722 5720 5718 5716 5714 5711 5707 5704 5700 5695 5692 5689 5686 5683 5681 5679
5711 5714 5743 5751 5751 5742 5722 5709 5706 5683 5678 5670 5679 5694 5707 5714 5713 5713 5714 5715 5713 5713 5715 5715 5716 5716 5715 5715 5714 5713 5712 5709 5706 5703 5699 5696 5692 5689 5686 5684 5680 5677 5675 5673
5726 5716 5732 5740 5746 5740 5732 5710 5690 5677 5666 5661 5676 5680 5675 5684 5687 5692 5694 5695 5696 5699 5701 5702 5703 5703 5704 5703 5703 5702 5701 5699 5697 5694 5690 5688 5685 5682 5679 5677 5674 5671 5669 5667
5733 5713 5717 5723 5723 5719 5719 5707 5688 5674 5671 5660 5656 5666 5680 5674 5675 5676 5679 5682 5683 5684 5686 5687 5688 5689 5690 5691 5690 5688 5687 5685 5684 5683 5681 5679 5677 5675 5672 5669 5667 5665 5662 5660
5723 5706 5697 5708 5723 5725 5721 5711 5691 5680 5674 5661 5654 5657 5676 5672 5669 5668 5668 5671 5671 5671 5672 5673 5674 5675 5676 5675 5675 5674 5673 5672 5672 5672 5672 5671 5669 5667 5665 5663 5661 5659 5656 5654
5721 5704 5688 5690 5701 5715 5714 5709 5699 5681 5667 5654 5648 5656 5666 5663 5660 5658 5658 5658 5659 5659 5661 5661 5661 5660 5660 5659 5659 5659 5659 5659 5660 5661 5661 5662 5661 5659 5658 5657 5654 5652 5650 5648
5729 5706 5695 5689 5693 5703 5704 5703 5696 5677 5663 5657 5659 5658 5653 5650 5648 5647 5647 5646 5647 5647 5647 5648 5646 5645 5644 5644 5643 5644 5645 5645 5646 5648 5650 5651 5652 5653 5652 5650 5648 5645 5643 5641
5728 5710 5706 5704 5707 5705 5698 5692 5687 5678 5669 5659 5657 5648 5641 5639 5638 5637 5637 5636 5636 5636 5635 5634 5633 5632 5631 5630 5630 5629 5629 5630 5631 5634 5637 5640 5643 5644 5644 5642 5640 5638 5636 5635
5719 5712 5707 5703 5707 5701 5687 5680 5675 5665 5659 5653 5645 5636 5636 5633 5631 5628 5626 5625 5624 5623 5623 5621 5620 5618 5616 5615 5614 5614 5614 5615 5616 5618 5621 5626 5629 5631 5633 5633 5632 5629 5628 5626
5707 5701 5692 5685 5693 5690 5667 5661 5658 5649 5643 5639 5631 5624 5624 5621 5618 5615 5614 5613 5611 5610 5608 5605 5603 5601 5599 5597 5596 5596 5596 5597 5598 5600 5604 5608 5612 5615 5618 5621 5621 5620 5619 5618
5698 5689 5677 5673 5680 5665 5648 5654 5650 5639 5632 5627 5621 5616 5612 5608 5606 5606 5603 5599 5597 5594 5591 5588 5586 5584 5582 5580 5578 5578 5578 5577 5578 5581 5584 5588 5592 5597 5601 5605 5608 5610 5610 5610
5696 5684 5668 5659 5659 5649 5645 5643 5636 5628 5622 5614 5608 5605 5602 5599 5596 5597 5593 5587 5580 5576 5572 5569 5567 5564 5562 5560 5559 5558 5558 5558 5558 5561 5564 5567 5571 5577 5583 5588 5593 5597 5600 5602
5683 5676 5662 5653 5652 5640 5626 5631 5630 5621 5610 5602 5597 5592 5587 5581 5573 5576 5576 5569 5564 5560 5555 5552 5549 5546 5543 5542 5538 5536 5538 5538 5539 5543 5545 5548 5551 5556 5563 5571 5579 5584 5589 5594
5664 5656 5647 5641 5637 5624 5617 5620 5622 5602 5594 5590 5585 5579 5572 5562 5557 5558 5555 5550 5545 5541 5537 5533 5529 5526 5524 5522 5518 5518 5520 5522 5525 5528 5530 5532 5535 5540 5547 5555 5564 5572 5579 5584
5645 5642 5635 5631 5625 5614 5611 5609 5597 5588 5586 5579 5574 5567 5559 5552 5548 5543 5538 5532 5527 5522 5519 5514 5510 5509 5508 5505 5502 5504 5507 5511 5513 5515 5517 5521 5524 5528 5536 5541 5549 5559 5567 5575
5631 5626 5623 5618 5609 5605 5603 5596 5591 5583 5574 5568 5561 5555 5546 5537 5531 5526 5520 5514 5510 5506 5503 5500 5496 5497 5498 5496 5494 5496 5501 5503 5505 5507 5509 5512 5515 5519 5523 5528 5537 5546 5556 5566
5624 5621 5615 5608 5605 5602 5596 5590 5582 5574 5564 5557 5548 5540 5530 5521 5516 5510 5506 5502 5497 5495 5493 5491 5490 5490 5492 5492 5492 5493 5496 5498 5498 5500 5503 5505 5508 5512 5516 5521 5529 5538 5548 5559
5614 5613 5606 5600 5598 5593 5589 5581 5572 5564 5554 5546 5538 5528 5517 5509 5504 5500 5497 5494 5492 5491 5489 5487 5486 5487 5489 5490 5491 5492 5493 5493 5493 5495 5497 5499 5502 5506 5510 5516 5523 5532 5543 5552
5609 5604 5598 5591 5589 5577 5573 5569 5561 5550 5542 5534 5525 5517 5509 5500 5495 5493 5492 5490 5489 5489 5488 5487 5487 5487 5489 5489 5490 5490 5489 5488 5488 5490 5491 5493 5495 5500 5505 5511 5520 5529 5539 5548